User: anonymous   Login
Location: Unspecified
(0.0000°N, 0.0000°E)
Time: 03:00:39
(UTC+00:00)
Language:

SAUDISAT 3 - Orbit

View from above orbital plane
View from above orbital plane
View from above satellite
View from above satellite

Ground track
Ground track

The orbit data is extracted from the following two-line orbital elements,

1 31118U 07012B   17324.73058725  .00000028  00000-0  12583-4 0  9991
2 31118  97.7438 309.9510 0016160 123.1270 237.1487 14.69078289567993
Epoch (UTC): 20 November 2017 17:32:02
Eccentricity: 0.0016160
inclination: 97.7438°
perigee height: 652 km
apogee height: 675 km
right ascension of ascending node: 309.9510°
argument of perigee: 123.1270°
revolutions per day: 14.69078289
mean anomaly at epoch: 237.1487°
orbit number at epoch: 56799

The dashed part of the orbit path shows where the satellite is in the earth's shadow,  

DLR